Mount Pleasant, MI

6:17 PM EDT on September 27, 2016 (GMT -0400)
Mount Pleasant Municipal

Weather History for KMOP - October, 2012

Change the Weather History Date:

Friday, October 5, 2012

  Actual Average (KAMN) Record (KAMN)
Temperature  
Mean Temperature 50 °F -  
Max Temperature 58 °F 64 °F 84 °F (2007)
Min Temperature 42 °F 41 °F 23 °F (2004)
Degree Days  
Heating Degree Days 15    
Moisture  
Dew Point 39 °F    
Average Humidity 65    
Maximum Humidity 86    
Minimum Humidity 40    
Precipitation  
Precipitation 0.12 in - - ()
Sea Level Pressure  
Sea Level Pressure 29.98 in    
Wind  
Wind Speed 9 mph (WSW)    
Max Wind Speed 16 mph    
Max Gust Speed 23 mph    
Visibility 10 miles    
Events      
Averages and records for this station are not official NWS values.
T = Trace of Precipitation, MM = Missing Value Source: NWS Daily Summary

Daily Weather History Graph

Daily Weather History Graph

Search for Another Location

Airport or City:

Trip Planner

Search our weather history database for the weather conditions in past years. The results will help you decide how hot, cold, wet, or windy it might be!

Date:

Astronomy

Oct. 05, 2012 Rise Set
Actual Time 7:41 AM EDT 7:11 PM EDT
Civil Twilight 7:13 AM EDT 7:40 PM EDT
Nautical Twilight 6:39 AM EDT 8:13 PM EDT
Astronomical Twilight 6:06 AM EDT 8:47 PM EDT
Moon 10:26 PM EDT (10/5) 12:57 PM EDT (10/5)
Length of Visible Light 12h 27m
Length of Day
11h 30m
Waning Gibbous, 74% of the Moon is Illuminated
Oct 5
Waning Gibbous
Oct 8
Last Quarter
Oct 15
New
Oct 21
First Quarter
Oct 29
Full

Hourly Weather History & Observations

Time (EDT) Temp. Windchill Dew Point Humidity Pressure Visibility Wind Dir Wind Speed Gust Speed Precip Events Conditions
12:15 AM 58.1 °F - 50.5 °F 76% 29.97 in 10.0 mi WSW 10.4 mph - N/A   Overcast
12:36 AM 57.9 °F - 49.5 °F 73% 29.97 in 10.0 mi WSW 8.1 mph 16.1 mph N/A   Overcast
12:55 AM 57.6 °F - 49.3 °F 74% 29.98 in 10.0 mi WSW 9.2 mph 17.3 mph N/A   Overcast
1:15 AM 57.2 °F - 49.1 °F 74% 29.98 in 10.0 mi WSW 9.2 mph - N/A   Overcast
1:36 AM 57.2 °F - 48.9 °F 74% 29.98 in 10.0 mi WSW 10.4 mph - N/A   Overcast
1:55 AM 56.3 °F - 48.6 °F 75% 29.98 in 10.0 mi WSW 8.1 mph - N/A   Mostly Cloudy
2:15 AM 55.6 °F - 46.2 °F 71% 29.99 in 10.0 mi West 12.7 mph 23.0 mph N/A   Scattered Clouds
2:35 AM 54.1 °F - 43.5 °F 67% 30.00 in 10.0 mi West 10.4 mph - N/A   Clear
2:55 AM 52.9 °F - 42.6 °F 68% 30.00 in 10.0 mi West 11.5 mph 16.1 mph N/A   Clear
3:15 AM 51.8 °F - 42.1 °F 69% 30.00 in 10.0 mi WSW 5.8 mph - N/A   Clear
3:35 AM 50.7 °F - 42.1 °F 72% 30.00 in 10.0 mi West 4.6 mph - N/A   Clear
3:55 AM 49.6 °F - 41.5 °F 74% 29.99 in 10.0 mi West 8.1 mph - N/A   Clear
4:15 AM 49.3 °F - 41.0 °F 73% 30.00 in 10.0 mi West 8.1 mph - N/A   Clear
4:35 AM 48.9 °F - 40.3 °F 72% 30.00 in 10.0 mi WSW 6.9 mph - N/A   Clear
4:55 AM 47.7 °F - 40.5 °F 76% 30.01 in 10.0 mi West 11.5 mph - N/A   Clear
5:15 AM 47.3 °F - 39.7 °F 75% 30.02 in 10.0 mi West 10.4 mph - N/A   Clear
5:35 AM 46.4 °F 43.5 °F 39.4 °F 77% 30.02 in 10.0 mi WSW 5.8 mph - N/A   Clear
5:55 AM 45.5 °F 40.8 °F 39.6 °F 80% 30.02 in 10.0 mi WSW 9.2 mph - N/A   Clear
6:15 AM 45.5 °F 40.8 °F 38.8 °F 78% 30.03 in 10.0 mi WSW 9.2 mph - N/A   Clear
6:35 AM 44.8 °F 42.4 °F 38.7 °F 79% 30.03 in 10.0 mi WSW 4.6 mph - N/A   Clear
6:55 AM 44.1 °F 40.8 °F 39.0 °F 82% 30.03 in 10.0 mi WSW 5.8 mph - N/A   Clear
7:15 AM 43.7 °F 40.3 °F 38.8 °F 83% 30.02 in 10.0 mi West 5.8 mph - N/A   Clear
7:35 AM 43.7 °F 40.3 °F 38.5 °F 82% 30.02 in 10.0 mi West 5.8 mph - N/A   Clear
7:55 AM 42.3 °F 39.4 °F 38.1 °F 85% 30.03 in 10.0 mi WSW 4.6 mph - N/A   Clear
8:15 AM 42.4 °F 39.6 °F 38.5 °F 86% 30.03 in 10.0 mi WSW 4.6 mph - N/A   Clear
8:35 AM 43.7 °F 41.1 °F 39.2 °F 84% 30.03 in 10.0 mi WSW 4.6 mph - N/A   Clear
8:55 AM 44.2 °F 41.0 °F 39.0 °F 82% 30.03 in 10.0 mi WSW 5.8 mph - N/A   Clear
9:15 AM 45.7 °F 41.0 °F 39.0 °F 78% 30.03 in 10.0 mi WSW 9.2 mph - N/A   Clear
9:35 AM 47.3 °F - 39.0 °F 73% 30.03 in 10.0 mi WSW 10.4 mph - N/A   Clear
9:55 AM 47.8 °F - 38.7 °F 70% 30.03 in 10.0 mi WSW 13.8 mph 20.7 mph N/A   Scattered Clouds
10:16 AM 49.1 °F - 39.0 °F 68% 30.03 in 10.0 mi WSW 13.8 mph - N/A   Scattered Clouds
10:35 AM 50.4 °F - 39.0 °F 65% 30.03 in 10.0 mi WSW 11.5 mph - N/A   Mostly Cloudy
10:55 AM 50.0 °F - 38.1 °F 64% 30.03 in 10.0 mi WSW 13.8 mph - N/A   Scattered Clouds
11:16 AM 50.7 °F - 38.1 °F 62% 30.02 in 10.0 mi WSW 12.7 mph 17.3 mph N/A   Scattered Clouds
11:35 AM 52.0 °F - 38.3 °F 60% 30.02 in 10.0 mi WSW 15.0 mph - N/A   Clear
11:55 AM 53.1 °F - 38.8 °F 59% 30.02 in 10.0 mi WSW 12.7 mph 19.6 mph N/A   Scattered Clouds
12:35 PM 53.8 °F - 37.2 °F 54% 30.01 in 10.0 mi WSW 12.7 mph 20.7 mph N/A   Clear
12:55 PM 54.1 °F - 36.9 °F 52% 30.01 in 10.0 mi SW 15.0 mph - N/A   Clear
1:16 PM 54.9 °F - 37.4 °F 52% 30.00 in 10.0 mi WSW 9.2 mph 20.7 mph N/A   Clear
1:35 PM 56.1 °F - 36.0 °F 47% 29.99 in 10.0 mi West 10.4 mph 19.6 mph N/A   Clear
1:55 PM 57.0 °F - 35.6 °F 45% 29.97 in 10.0 mi West 15.0 mph 19.6 mph N/A   Clear
2:35 PM 57.0 °F - 34.5 °F 43% 29.97 in 10.0 mi WSW 15.0 mph 19.6 mph N/A   Clear
2:55 PM 57.7 °F - 34.9 °F 42% 29.96 in 10.0 mi West 12.7 mph 20.7 mph N/A   Clear
3:15 PM 57.6 °F - 34.2 °F 41% 29.96 in 10.0 mi West 12.7 mph 18.4 mph N/A   Clear
3:35 PM 56.3 °F - 32.7 °F 41% 29.96 in 10.0 mi West 15.0 mph 20.7 mph N/A   Clear
3:55 PM 55.4 °F - 32.5 °F 42% 29.95 in 10.0 mi West 16.1 mph 20.7 mph N/A   Clear
4:15 PM 55.6 °F - 31.3 °F 40% 29.95 in 10.0 mi West 15.0 mph 23.0 mph N/A   Clear
4:35 PM 54.1 °F - 32.0 °F 43% 29.95 in 10.0 mi West 11.5 mph 17.3 mph N/A   Clear
4:55 PM 53.2 °F - 31.8 °F 44% 29.94 in 10.0 mi WSW 12.7 mph - N/A   Clear
5:15 PM 52.7 °F - 32.0 °F 45% 29.94 in 10.0 mi West 11.5 mph 16.1 mph N/A   Scattered Clouds
5:35 PM 52.0 °F - 33.6 °F 50% 29.94 in 10.0 mi WSW 9.2 mph - N/A   Scattered Clouds
5:55 PM 51.1 °F - 33.8 °F 52% 29.95 in 10.0 mi WSW 9.2 mph - N/A   Scattered Clouds
6:15 PM 50.5 °F - 34.3 °F 54% 29.95 in 10.0 mi WSW 13.8 mph 18.4 mph N/A   Mostly Cloudy
6:35 PM 50.2 °F - 35.4 °F 57% 29.95 in 10.0 mi West 11.5 mph 16.1 mph N/A   Mostly Cloudy
6:55 PM 49.5 °F - 36.5 °F 61% 29.96 in 10.0 mi SW 9.2 mph - N/A   Mostly Cloudy
7:15 PM 49.1 °F - 36.7 °F 62% 29.96 in 10.0 mi WSW 10.4 mph 17.3 mph N/A   Scattered Clouds
7:35 PM 48.9 °F - 36.7 °F 63% 29.95 in 10.0 mi WSW 9.2 mph 17.3 mph N/A   Clear
7:55 PM 48.4 °F - 37.4 °F 66% 29.95 in 10.0 mi WSW 9.2 mph - N/A   Mostly Cloudy
8:15 PM 48.4 °F - 37.6 °F 66% 29.95 in 10.0 mi WSW 9.2 mph - N/A   Overcast
8:35 PM 48.4 °F - 37.4 °F 66% 29.95 in 10.0 mi SW 6.9 mph - N/A   Mostly Cloudy
8:55 PM 48.2 °F - 37.8 °F 67% 29.94 in 10.0 mi SW 6.9 mph - N/A   Overcast
9:15 PM 48.2 °F - 37.9 °F 68% 29.93 in 10.0 mi SSW 5.8 mph - N/A   Overcast
9:35 PM 48.0 °F - 38.3 °F 69% 29.93 in 10.0 mi SSW 5.8 mph - N/A   Mostly Cloudy
9:56 PM 47.8 °F - 38.1 °F 69% 29.93 in 10.0 mi WSW 6.9 mph - N/A   Mostly Cloudy
10:15 PM 48.2 °F - 37.6 °F 67% 29.94 in 10.0 mi WSW 6.9 mph - N/A   Overcast
10:35 PM 47.3 °F - 36.9 °F 67% 29.93 in 10.0 mi WSW 6.9 mph - N/A   Scattered Clouds
10:56 PM 46.4 °F 43.5 °F 36.1 °F 67% 29.92 in 10.0 mi West 5.8 mph - N/A   Clear
11:35 PM 46.0 °F 43.1 °F 35.6 °F 67% 29.92 in 10.0 mi WSW 5.8 mph - N/A   Clear
11:56 PM 45.9 °F 42.9 °F 34.9 °F 66% 29.92 in 10.0 mi WSW 5.8 mph - N/A   Clear